Weather History for EGUL - October, 2011

Change the Weather History Date:

Saturday, October 15, 2011

  Actual Average (EGSC) Record (EGSC)
Temperature  
Mean Temperature 48 °F -  
Max Temperature 62 °F 57 °F 66 °F (2001)
Min Temperature 35 °F 46 °F 33 °F (2011)
Degree Days  
Heating Degree Days 16    
Moisture  
Dew Point 43 °F    
Average Humidity 80    
Maximum Humidity 100    
Minimum Humidity 50    
Precipitation  
Precipitation 0.00 in - - ()
Sea Level Pressure  
Sea Level Pressure 30.28 in    
Wind  
Wind Speed 3 mph ()    
Max Wind Speed 12 mph    
Max Gust Speed -    
Visibility 6.2 miles    
Events      
Averages and records for this station are not official NWS values.
T = Trace of Precipitation, MM = Missing Value Source: Averaged Metar Reports

Daily Weather History Graph

Daily Weather History Graph

Search for Another Location

Airport or City:

Trip Planner

Search our weather history database for the weather conditions in past years. The results will help you decide how hot, cold, wet, or windy it might be!

Date:

Astronomy

Oct. 15, 2011 Rise Set
Actual Time 7:22 AM BST 6:04 PM BST
Civil Twilight 6:47 AM BST 6:38 PM BST
Nautical Twilight 6:08 AM BST 7:17 PM BST
Astronomical Twilight 5:28 AM BST 7:57 PM BST
Moon 7:16 PM BST (10/15) 11:04 AM BST (10/15)
Length of Visible Light 11h 50m
Length of Day
10h 41m
Waning Gibbous, 90% of the Moon is Illuminated
Oct 15
Waning Gibbous
Oct 20
Last Quarter
Oct 26
New
Nov 2
First Quarter
Nov 10
Full

Hourly Weather History & Observations

Time (BST) Temp. Windchill Dew Point Humidity Pressure Visibility Wind Dir Wind Speed Gust Speed Precip Events Conditions
12:55 AM 37.4 °F - 37.4 °F 100% 30.38 in 6.2 mi Calm Calm - N/A   Clear
1:55 AM 37.0 °F 34.5 °F 36.9 °F 99% 30.37 in 6.2 mi East 3.5 mph - N/A   Clear
3:55 AM 35.2 °F - 35.2 °F 100% 30.35 in 6.2 mi Calm Calm - N/A   Clear
4:55 AM 36.1 °F - 35.8 °F 99% 30.34 in 6.2 mi Calm Calm - N/A   Clear
5:55 AM 36.9 °F - 36.5 °F 99% 30.33 in 6.2 mi Calm Calm - N/A   Clear
7:55 AM 36.1 °F - 36.1 °F 100% 30.32 in 6.2 mi Calm Calm - N/A   Clear
8:55 AM 41.5 °F - 41.5 °F 100% 30.32 in 6.2 mi Calm Calm - N/A   Clear
9:55 AM 50.7 °F - 50.5 °F 99% 30.32 in 6.2 mi SE 5.8 mph - N/A   Clear
10:55 AM 55.9 °F - 46.6 °F 71% 30.30 in 6.2 mi SE 9.2 mph - N/A   Clear
12:59 PM 60.8 °F - 46.4 °F 59% 30.28 in 6.2 mi SE 9.2 mph - N/A   Light Drizzle
1:04 PM 60.8 °F - 46.4 °F 59% 30.27 in 6.2 mi SE 9.2 mph - N/A   Clear
1:35 PM 60.8 °F - 44.6 °F 55% 30.27 in 6.2 mi SE 11.5 mph - N/A   Light Drizzle
1:40 PM 60.8 °F - 44.6 °F 55% 30.27 in 6.2 mi SE 9.2 mph - N/A   Clear
1:55 PM 61.7 °F - 44.4 °F 53% 30.26 in 6.2 mi SSE 9.2 mph - 0.00 in   Clear
2:55 PM 62.1 °F - 43.7 °F 51% 30.24 in 6.2 mi SSE 9.2 mph - N/A   Clear
3:55 PM 61.5 °F - 42.6 °F 50% 30.23 in 6.2 mi SE 8.1 mph - N/A   Clear
4:55 PM 59.0 °F - 44.8 °F 59% 30.23 in 6.2 mi SE 9.2 mph - N/A   Clear
5:55 PM 54.5 °F - 44.8 °F 70% 30.22 in 6.2 mi SE 6.9 mph - N/A   Clear
6:55 PM 51.8 °F - 44.4 °F 76% 30.23 in 6.2 mi ESE 4.6 mph - N/A   Clear
9:55 PM 46.9 °F - 46.8 °F 99% 30.22 in 6.2 mi Calm Calm - N/A   Clear
10:55 PM 46.8 °F - 46.6 °F 99% 30.21 in 6.2 mi Calm Calm - N/A   Clear
11:55 PM 45.3 °F - 45.3 °F 100% 30.21 in 6.2 mi Calm Calm - N/A   Clear